When you browse on this site, cookies collect data to enhance your experience and personalize the content and advertising you see.
Visit our Privacy Policy to learn more. By continuing to use the site, you agree to this use of cookies and data.
  • In Lithuania
  • List of Countries
  • For 7 days
  • Water Temperature
  • Weather Map
  • Weather Widgets
  • user-avatar
    Login

    Hourly Weather Bolshoe Yakshino

    Today, 24 August, Saturday

    Time Temperature Precipitation Wind Pressure Humidity
    00:00 +13°C° 0 mm 2 mps 748 mmHg 92%
    01:00 +12°C° 0 mm 2 mps 748 mmHg 93%
    02:00 +12°C° 0 mm 2 mps 748 mmHg 94%
    03:00 +11°C° 0 mm 3 mps 748 mmHg 93%
    04:00 +12°C° 0 mm 3 mps 747 mmHg 93%
    05:00 +12°C° 0 mm 3 mps 747 mmHg 92%
    06:00 +13°C° 0 mm 4 mps 747 mmHg 86%
    07:00 +15°C° 0 mm 4 mps 747 mmHg 80%
    08:00 +18°C° 0 mm 4 mps 747 mmHg 72%
    09:00 +17°C° 0 mm 5 mps 747 mmHg 68%
    10:00 +19°C° 0 mm 5 mps 746 mmHg 65%
    11:00 +20°C° 0 mm 5 mps 746 mmHg 61%
    12:00 +20°C° 0 mm 4 mps 746 mmHg 64%
    13:00 +20°C° 0 mm 4 mps 746 mmHg 67%
    14:00 +20°C° 0 mm 3 mps 746 mmHg 70%
    15:00 +19°C° 0.2 mm 3 mps 746 mmHg 75%
    16:00 +19°C° 0.2 mm 3 mps 746 mmHg 79%
    17:00 +18°C° 0.2 mm 3 mps 746 mmHg 84%
    18:00 +17°C° 0 mm 3 mps 746 mmHg 88%
    19:00 +16°C° 0 mm 2 mps 746 mmHg 92%
    20:00 +14°C° 0 mm 2 mps 746 mmHg 96%
    21:00 +14°C° 0 mm 2 mps 746 mmHg 96%
    22:00 +13°C° 0 mm 2 mps 747 mmHg 96%
    23:00 +13°C° 0 mm 2 mps 747 mmHg 95%

    Tomorrow, 25 August, Sunday

    Time Temperature Precipitation Wind Pressure Humidity
    00:00 +12°C° 0 mm 2 mps 747 mmHg 96%
    01:00 +11°C° 0 mm 1 mps 748 mmHg 96%
    02:00 +11°C° 0 mm 1 mps 748 mmHg 96%
    03:00 +10°C° 0 mm 1 mps 748 mmHg 96%
    04:00 +10°C° 0 mm 1 mps 748 mmHg 97%
    05:00 +10°C° 0 mm 1 mps 748 mmHg 97%
    06:00 +11°C° 0 mm 1 mps 749 mmHg 93%
    07:00 +13°C° 0 mm 1 mps 749 mmHg 89%
    08:00 +15°C° 0 mm 2 mps 749 mmHg 85%
    09:00 +16°C° 0 mm 1 mps 750 mmHg 76%
    10:00 +19°C° 0 mm 1 mps 750 mmHg 68%
    11:00 +21°C° 0 mm 1 mps 750 mmHg 59%
    12:00 +21°C° 0 mm 1 mps 750 mmHg 56%
    13:00 +22°C° 0 mm 1 mps 750 mmHg 53%
    14:00 +23°C° 0 mm 1 mps 750 mmHg 51%
    15:00 +22°C° 0 mm 1 mps 750 mmHg 55%
    16:00 +22°C° 0 mm 1 mps 750 mmHg 60%
    17:00 +21°C° 0 mm 1 mps 750 mmHg 65%
    18:00 +19°C° 0 mm 1 mps 750 mmHg 71%
    19:00 +15°C° 0 mm 0 mps 750 mmHg 77%
    20:00 +12°C° 0 mm 0 mps 750 mmHg 83%
    21:00 +12°C° 0 mm 0 mps 750 mmHg 85%
    22:00 +11°C° 0 mm 0 mps 750 mmHg 87%
    23:00 +11°C° 0 mm 0 mps 750 mmHg 89%

    Day after tomorrow, 26 August, Monday

    Time Temperature Precipitation Wind Pressure Humidity
    00:00 +11°C° 0 mm 0 mps 750 mmHg 90%
    01:00 +10°C° 0 mm 0 mps 750 mmHg 91%
    02:00 +10°C° 0 mm 0 mps 750 mmHg 92%
    03:00 +11°C° 0 mm 1 mps 750 mmHg 93%
    04:00 +11°C° 0 mm 1 mps 750 mmHg 94%
    05:00 +11°C° 0 mm 1 mps 750 mmHg 94%
    06:00 +13°C° 0 mm 1 mps 750 mmHg 87%
    07:00 +15°C° 0 mm 1 mps 750 mmHg 80%
    08:00 +18°C° 0 mm 1 mps 750 mmHg 73%
    09:00 +18°C° 0 mm 2 mps 749 mmHg 67%
    10:00 +20°C° 0 mm 2 mps 749 mmHg 62%
    11:00 +21°C° 0 mm 2 mps 749 mmHg 56%
    12:00 +23°C° 0 mm 2 mps 749 mmHg 55%
    13:00 +22°C° 0 mm 3 mps 748 mmHg 54%
    14:00 +24°C° 0 mm 3 mps 748 mmHg 52%
    15:00 +22°C° 0 mm 3 mps 747 mmHg 57%
    16:00 +21°C° 0 mm 2 mps 747 mmHg 62%
    17:00 +21°C° 0 mm 2 mps 747 mmHg 67%
    18:00 +19°C° 0 mm 2 mps 746 mmHg 74%
    19:00 +17°C° 0 mm 2 mps 746 mmHg 80%
    20:00 +15°C° 0 mm 2 mps 746 mmHg 87%
    21:00 +15°C° 0 mm 2 mps 746 mmHg 87%
    22:00 +15°C° 0 mm 2 mps 745 mmHg 88%
    23:00 +15°C° 0 mm 2 mps 745 mmHg 88%

    27 August, Tuesday

    Time Temperature Precipitation Wind Pressure Humidity
    00:00 +15°C° 0 mm 2 mps 745 mmHg 90%
    01:00 +15°C° 0 mm 2 mps 745 mmHg 93%
    02:00 +15°C° 0 mm 2 mps 744 mmHg 95%
    03:00 +14°C° 0 mm 2 mps 744 mmHg 96%
    04:00 +14°C° 0 mm 2 mps 744 mmHg 97%
    05:00 +14°C° 0 mm 2 mps 744 mmHg 98%
    06:00 +15°C° 0 mm 2 mps 744 mmHg 96%
    07:00 +16°C° 0 mm 3 mps 744 mmHg 93%
    08:00 +17°C° 0 mm 3 mps 744 mmHg 90%
    09:00 +17°C° 0.1 mm 3 mps 744 mmHg 84%
    10:00 +18°C° 0.1 mm 3 mps 744 mmHg 78%
    11:00 +19°C° 0.1 mm 4 mps 745 mmHg 72%
    12:00 +19°C° 0 mm 4 mps 745 mmHg 67%
    13:00 +20°C° 0 mm 4 mps 745 mmHg 62%
    14:00 +20°C° 0 mm 4 mps 745 mmHg 57%
    15:00 +20°C° 0 mm 4 mps 745 mmHg 60%
    16:00 +19°C° 0 mm 3 mps 745 mmHg 63%
    17:00 +19°C° 0 mm 3 mps 745 mmHg 67%
    18:00 +17°C° 0 mm 3 mps 745 mmHg 73%
    19:00 +14°C° 0 mm 3 mps 746 mmHg 79%
    20:00 +13°C° 0 mm 2 mps 746 mmHg 85%
    21:00 +12°C° 0 mm 2 mps 746 mmHg 87%
    22:00 +12°C° 0 mm 2 mps 747 mmHg 89%
    23:00 +10°C° 0 mm 2 mps 747 mmHg 92%

    28 August, Wednesday

    Time Temperature Precipitation Wind Pressure Humidity
    00:00 +9°C° 0 mm 2 mps 747 mmHg 90%
    01:00 +8°C° 0 mm 2 mps 747 mmHg 88%
    02:00 +7°C° 0 mm 2 mps 747 mmHg 86%
    03:00 +6°C° 0 mm 2 mps 748 mmHg 85%
    04:00 +5°C° 0 mm 2 mps 748 mmHg 85%
    05:00 +5°C° 0 mm 2 mps 748 mmHg 85%
    06:00 +6°C° 0 mm 2 mps 749 mmHg 77%
    07:00 +7°C° 0 mm 2 mps 749 mmHg 69%
    08:00 +9°C° 0 mm 3 mps 749 mmHg 60%
    09:00 +10°C° 0 mm 3 mps 749 mmHg 55%
    10:00 +11°C° 0 mm 3 mps 749 mmHg 50%
    11:00 +13°C° 0 mm 3 mps 749 mmHg 45%
    12:00 +14°C° 0 mm 3 mps 749 mmHg 44%
    13:00 +14°C° 0 mm 3 mps 749 mmHg 43%
    14:00 +16°C° 0 mm 3 mps 749 mmHg 42%
    15:00 +16°C° 0 mm 3 mps 749 mmHg 46%
    16:00 +15°C° 0 mm 2 mps 749 mmHg 50%
    17:00 +15°C° 0 mm 2 mps 749 mmHg 54%
    18:00 +13°C° 0 mm 2 mps 749 mmHg 61%
    19:00 +11°C° 0 mm 1 mps 749 mmHg 68%
    20:00 +9°C° 0 mm 1 mps 749 mmHg 74%
    21:00 +8°C° 0 mm 1 mps 749 mmHg 77%
    22:00 +7°C° 0 mm 1 mps 749 mmHg 79%
    23:00 +7°C° 0 mm 1 mps 750 mmHg 81%

    29 August, Thursday

    Time Temperature Precipitation Wind Pressure Humidity
    00:00 +6°C° 0 mm 1 mps 750 mmHg 82%
    01:00 +6°C° 0 mm 1 mps 749 mmHg 83%
    02:00 +6°C° 0 mm 1 mps 749 mmHg 84%
    03:00 +6°C° 0 mm 1 mps 750 mmHg 84%
    04:00 +6°C° 0 mm 1 mps 750 mmHg 84%
    05:00 +5°C° 0 mm 1 mps 750 mmHg 84%
    06:00 +8°C° 0 mm 1 mps 750 mmHg 77%
    07:00 +10°C° 0 mm 1 mps 750 mmHg 70%
    08:00 +12°C° 0 mm 2 mps 750 mmHg 62%
    09:00 +12°C° 0 mm 2 mps 750 mmHg 61%
    10:00 +13°C° 0 mm 2 mps 750 mmHg 59%
    11:00 +14°C° 0 mm 2 mps 750 mmHg 58%
    12:00 +14°C° 0 mm 2 mps 750 mmHg 61%
    13:00 +13°C° 0 mm 2 mps 749 mmHg 64%
    14:00 +13°C° 0 mm 2 mps 749 mmHg 67%
    15:00 +14°C° 0 mm 2 mps 749 mmHg 67%
    16:00 +14°C° 0 mm 2 mps 749 mmHg 68%
    17:00 +15°C° 0 mm 2 mps 749 mmHg 69%
    18:00 +13°C° 0 mm 1 mps 749 mmHg 77%
    19:00 +11°C° 0 mm 1 mps 749 mmHg 85%
    20:00 +9°C° 0 mm 1 mps 749 mmHg 92%
    21:00 +9°C° 0 mm 1 mps 749 mmHg 93%
    22:00 +7°C° 0 mm 0 mps 749 mmHg 94%
    23:00 +7°C° 0 mm 0 mps 749 mmHg 94%
    Show more